Delta Virtual Airport Information Service

Amsterdam Schiphol Airport

ICAO: EHAM Country: Netherlands
Latitude: 52.3086 Longitude: 4.76389
Latest Arrival : KLM769 (C) (TNCB-EHAM) Latest Departure : DAL9910 (B) (EHAM-KATL)


WX CaptureLIVE
Data provided by noaa.gov | Fetched at 04:53:20

METAR : EHAM 031025Z 20019KT 9999 BKN016 04/01 Q1005 NOSIG

TAF : EHAM 030517Z 0306/0412 22012KT 9999 SCT030 BECMG 0308/0311 21017G27KT BECMG 0311/0314 7000 -RADZ BKN012 BECMG 0314/0317 21012KT 4000 BKN007 BECMG 0317/0320 18007KT 2500 BR -DZ BKN004 PROB30 0320/0406 1400 BKN002 BECMG 0406/0409 4000 BKN007 BECMG 0409/0412 7000 NSW


Runway Data for EHAM
Data provided by openaviationdata.com

Runway ID Mag Var Hdg Length Elevation Surface ILS Freq ILS Id ILS Slope
4 -1 42° 6619 ft -11 ft Asphalt -- -- --
6 -1 59° 11429 ft -11 ft Asphalt 110.55 KAG 3
9 -1 88° 11329 ft -11 ft Asphalt -- -- --
18L -1 184° 11155 ft -11 ft Asphalt -- -- --
18R -1 184° 12448 ft -11 ft Asphalt 110.1 VPB 3
18C -1 184° 10812 ft -11 ft Asphalt 109.5 SP 3
22 -1 222° 6619 ft -11 ft Asphalt 109.15 SCH 3
24 -1 239° 11429 ft -11 ft Asphalt -- -- --
27 -1 268° 11329 ft -11 ft Asphalt 111.55 0
36L -1 12448 ft -11 ft Asphalt -- -- --
36R -1 11155 ft -11 ft Asphalt 111.95 ABA 3
36C -1 10812 ft -11 ft Asphalt 108.75 SA 3

Amsterdam Schiphol Airport, Netherlands
Use only for reference purposes



Not for navigational purposes.